Location: Morehouse Lake Observatory
(43.3628°N, 74.6770°W)
Time: 11:14:08
(UTC-04:00)

Envisat - Visible Passes

Search period start: 21 October 2019 00:00
Search period end: 31 October 2019 00:00
Orbit: 764 x 766 km, 98.1° (Epoch: 21 October)

Date Brightness Start Highest point End Pass type
(mag) Time Alt. Az. Time Alt. Az. Time Alt. Az.
21 Oct 6.2 06:40:55 10° NE 06:43:55 16° E 06:46:55 10° SE visible
21 Oct 4.2 19:34:09 10° S 19:38:59 44° W 19:43:51 10° NNW visible
22 Oct 3.0 18:57:05 10° SSE 19:02:09 85° ENE 19:07:16 10° NNW visible
22 Oct 6.2 20:40:06 10° WSW 20:41:50 12° W 20:43:34 10° WNW visible
23 Oct 5.2 20:00:27 10° SSW 20:04:39 26° W 20:08:52 10° NW visible
24 Oct 6.5 06:30:31 10° ENE 06:32:31 12° E 06:34:30 10° ESE visible
24 Oct 3.7 19:22:42 10° S 19:27:41 56° W 19:32:41 10° NNW visible
25 Oct 3.0 18:45:53 10° SSE 18:50:54 68° ENE 18:55:58 10° N visible
25 Oct 6.0 20:27:33 10° SW 20:30:25 15° W 20:33:17 10° NW visible
26 Oct 6.0 06:54:27 10° NE 06:58:18 21° E 07:02:09 10° SE visible
26 Oct 4.8 19:48:47 10° SSW 19:53:18 32° W 19:57:51 10° NNW visible
27 Oct 3.3 19:11:20 10° S 19:16:23 71° WSW 19:21:29 10° NNW visible
28 Oct 3.1 18:34:45 10° SSE 18:39:41 54° ENE 18:44:38 10° N visible
28 Oct 5.7 20:15:28 10° SW 20:19:01 19° W 20:22:35 10° NW visible
29 Oct 6.1 06:43:38 10° NE 06:46:56 17° E 06:50:12 10° SE visible
29 Oct 4.3 19:37:13 10° SSW 19:41:58 40° W 19:46:46 10° NNW visible
30 Oct 3.0 19:00:03 10° SSE 19:05:07 89° WSW 19:10:14 10° NNW visible
30 Oct 6.3 20:43:58 10° W 20:44:51 10° W 20:45:44 10° WNW visible
